Regional Weather Roundup
Issued by NWS Jackson, KY

Home | Current Version | Previous Version | Graphics & Text | Print | Product List | Glossary On
Versions: 1 2 3 4 5 6 7 8 9 10 11 12 13 14 15 16 17 18 19 20 21 22 23 24 25 26 27 28 29 30 31 32 33 34 35 36 37 38 39 40 41 42 43 44 45 46 47 48 49 50
000
ASUS43 KJKL 271910
RWRJKL

EAST KENTUCKY HOURLY WEATHER ROUNDUP
NATIONAL WEATHER SERVICE JACKSON KY
300 PM EDT WED MAY 27 2015

NOTE: "FAIR" INDICATES FEW OR NO CLOUDS BELOW 12,000 FEET WITH
NO SIGNIFICANT WEATHER AND/OR OBSTRUCTIONS TO VISIBILITY.

* THESE REPORTS ARE NOT UNDER NWS QUALITY CONTROL AND MAY NOT
  REPORT WEATHER SUCH AS PRECIPITATION AND FOG.

KYZ079-080-083-085-087-088-110-112-115-119-120-272000
...EASTERN KENTUCKY...

CITY           SKY/WX    TMP DP  RH WIND       PRES   REMARKS
JACKSON        MOSUNNY   78  63  59 VRB5      30.20F
LONDON         MOSUNNY   80  58  46 S6        30.18F
SOMERSET*      MOSUNNY   77  61  57 W6        30.20S
MONTICELLO*    MOSUNNY   83  64  52 SW8       30.21F
MIDDLESBORO*   MOSUNNY   79  63  58 S3        30.21F
HARLAN APT*    PTCLDY    79  57  47 MISG      30.22F
HAZARD APT*    MOCLDY    81  61  50 S6        30.19F
BLACK MTN*       N/A     68  59  73 SW2         N/A
PIKEVILLE APT* MOSUNNY   79  63  57 SW5       30.21S
BIG SANDY*     PTCLDY    81  62  50 SW9       30.19S
MOREHEAD APT*  PTCLDY    81  64  57 SW9G17    30.18F
$$

KYZ035-036-041-042-044-050-067-078-099-272000
...CENTRAL KENTUCKY...

CITY           SKY/WX    TMP DP  RH WIND       PRES   REMARKS
MT STERLING*   MOSUNNY   81  64  57 SW10G16   30.17F
FLEMING/MASON* PTSUNNY   81  64  57 SW13      30.15F
DANVILLE*      PTSUNNY   82  63  51 SW8       30.17F
RICHMOND*      PTSUNNY   79  63  57 SW12      30.17S
LEXINGTON      MOSUNNY   81  65  58 S14       30.14F
FRANKFORT      PTSUNNY   80  63  55 SW9G18    30.13S
$$

KYZ091>093-OHZ055-061-077-WVZ005-015-034-035-042-272000
...SOUTHERN OHIO/WEST VIRGINIA...

CITY           SKY/WX    TMP DP  RH WIND       PRES   REMARKS
COVINGTON      PTSUNNY   80  64  58 S14G20    30.11F
COLUMBUS       MOSUNNY   80  62  54 SW15      30.09F
DAYTON         PTSUNNY   81  63  54 S15G25    30.07F
WILMINGTON     MOSUNNY   80  61  52 SW20G25   30.10F
HUNTINGTON     MOSUNNY   82  63  52 S8        30.15F
CHARLESTON     MOSUNNY   81  62  52 SW6       30.16F
PINEVILLE*     SUNNY     83  62  48 MISG      30.25F
BECKLEY          N/A     79  57  46 W13       30.24F
BLUEFIELD      PTSUNNY   79  54  41 W8        30.27F
$$

VAZ002-007-008-TNZ017-027-036-066-071-272000
...SOUTHWEST VIRGINIA/EAST TENNESSEE...

CITY           SKY/WX    TMP DP  RH WIND       PRES   REMARKS
WISE*          PTSUNNY   77  52  41 SW9       30.28S
JONESVILLE*    PTCLDY    77  59  53 CALM      30.24F
ABINGDON*      MOSUNNY   80  59  48 W3        30.24F
BRISTOL        MOSUNNY   82  58  43 W10       30.22F
KNOXVILLE      MOSUNNY   79  59  50 NW7       30.19F
OAK RIDGE      MOSUNNY   81  62  52 VRB5      30.21F
CROSSVILLE     PTSUNNY   77  58  51 S6        30.23F
NASHVILLE      RAIN      69  64  84 SW7       30.20R FOG
$$

...KEY TO REMARKS...
VSB - VISIBILITY IN MILES
WCI - WIND CHILL INDEX
HX  - HEAT INDEX

$$


USA.gov is the U.S. government's official web portal to all federal, state and local government web resources and services.